Location: Borotín
(49.5055°N, 14.6142°E)
Time: 11:15:13
(UTC+00:00)

MOZ.5/SAFIR/RUBIN 5/SL-8 - Pass Details

Date: 27 May 2022
Orbit: 677 x 704 km, 98.2° (Epoch: 26 June)

Event Time Altitude Azimuth Distance (km) Brightness Sun altitude
Exits shadow 00:34:57 28° 197° (SSW) 1,306 4.6 -16.1°
Maximum altitude 00:37:14 52° 260° (W) 867 4.0 -15.9°
Drops below altitude 10° 00:41:54 10° 337° (NNW) 2,178 6.9 -15.6°
Sets 00:44:14 0° 343° (NNW) 3,104 7.9 -15.4°
